Pagina principale
METAR-TAF:

METAR-TAF

Aeroporti :

Springbok, Sudafrica

latitudine: 29-40S, longitudine: 17-53E, altezza: 1006 m

Osservazione

Il bollettino è stato emesso 14 ore e 55 minuti fa, alle 10:48 UTC
Vento 11 kt da nord
Temperature 24°C
Umidità 14%
Pressione 1021 hPa

METAR: FASB 301048Z AUTO 01011KT //// // ////// 24/M05 Q1021

Ora: 03:43 (01:43 UTC)


TAF: mancante

Osservazioni e previsioni meteorologiche di più di 4000 aeroporti (messaggi METAR e TAF).

Le stazioni disponibili sono rappresentate dai dischi gialli e rossi sulla carta.

Puntare il mouse per vedere il nome della stazione.

Clicca sopra per visualizzare le osservazioni e previsioni meteorologiche.

Per cambiare la mappa : fare clic sui pulsanti verdi con una croce nera per ingrandire, il pulsante verde con un trattino per diminuire, o sulla freccia verde per le mappe adiacenti.


METAR-TAF: